| time (UTC) | temp F | wind direction | speed MPH | gust MPH | rain 1hr in | rain 24hr in | rain mn in | humidity % | barometer mb |
| 20260505173014 | 77 | 197 | 9.0 | 18.0 | 0.00 | 0.07 | 0.00 | 39 | 1001.1 |
| 20260505171512 | 76 | 173 | 11.0 | 27.0 | 0.00 | 0.07 | 0.00 | 39 | 1000.9 |
| 20260505170016 | 76 | 191 | 9.0 | 27.0 | 0.00 | 0.07 | 0.00 | 36 | 1001.1 |
| 20260505164507 | 77 | 207 | 13.0 | 27.0 | 0.00 | 0.07 | 0.00 | 36 | 1001.4 |
| 20260505163010 | 76 | 187 | 14.0 | 25.0 | 0.00 | 0.07 | 0.00 | 38 | 1001.4 |
| 20260505161626 | 75 | 191 | 10.0 | 25.0 | 0.00 | 0.07 | 0.00 | 39 | 1001.7 |
| 20260505161502 | 75 | 189 | 11.0 | 26.0 | 0.00 | 0.07 | 0.00 | 40 | 1001.7 |
| 20260505153052 | 74 | 207 | 13.0 | 24.0 | 0.00 | 0.07 | 0.07 | 44 | 1002.0 |
| 20260505151547 | 73 | 185 | 8.0 | 19.0 | 0.00 | 0.07 | 0.07 | 47 | 1002.1 |
| 20260505124527 | 64 | 206 | 10.0 | 23.0 | 0.00 | 0.07 | 0.07 | 59 | 1003.9 |
| 20260505123027 | 65 | 223 | 11.0 | 16.0 | 0.00 | 0.07 | 0.07 | 58 | 1003.5 |
| 20260505121528 | 64 | 186 | 5.0 | 20.0 | 0.00 | 0.07 | 0.07 | 63 | 1003.5 |
| 20260505120051 | 63 | 202 | 7.0 | 16.0 | 0.00 | 0.07 | 0.07 | 63 | 1003.6 |
| 20260505114523 | 61 | 181 | 8.0 | 12.0 | 0.00 | 0.07 | 0.07 | 68 | 1003.7 |
| 20260505113021 | 57 | 174 | 4.0 | 7.0 | 0.00 | 0.07 | 0.07 | 61 | 1003.8 |
| 20260505111551 | 53 | 153 | 2.0 | 5.0 | 0.00 | 0.07 | 0.07 | 21 | 1003.8 |
| 20260505101542 | 51 | 277 | 0.0 | 0.0 | 0.00 | 0.07 | 0.07 | 31 | 1003.2 |
| 20260505100041 | 51 | 277 | 0.0 | 0.0 | 0.00 | 0.07 | 0.07 | 33 | 1003.1 |
| 20260505094536 | 51 | 277 | 0.0 | 0.0 | 0.02 | 0.07 | 0.07 | 37 | 1003.3 |
| 20260505093037 | 52 | 332 | 1.0 | 2.0 | 0.07 | 0.07 | 0.07 | 42 | 1003.3 |
| 20260505091531 | 53 | 216 | 0.0 | 2.0 | 0.07 | 0.07 | 0.07 | 51 | 1003.1 |
| 20260505090038 | 54 | 181 | 0.0 | 3.0 | 0.07 | 0.07 | 0.07 | 66 | 1003.2 |
| 20260505084521 | 57 | 217 | 1.0 | 6.0 | 0.05 | 0.05 | 0.05 | 68 | 1003.6 |
| 20260505083018 | 57 | 355 | 0.0 | 0.0 | 0.00 | 0.00 | 0.00 | 62 | 1003.1 |
| 20260505081517 | 58 | 143 | 0.0 | 1.0 | 0.00 | 0.00 | 0.00 | 59 | 1003.1 |
| 20260505080016 | 58 | 163 | 1.0 | 5.0 | 0.00 | 0.00 | 0.00 | 58 | 1003.3 |
| 20260505074514 | 58 | 132 | 2.0 | 6.0 | 0.00 | 0.00 | 0.00 | 57 | 1003.4 |
| 20260505073024 | 58 | 175 | 4.0 | 8.0 | 0.00 | 0.00 | 0.00 | 58 | 1003.2 |
| 20260505071517 | 58 | 181 | 3.0 | 8.0 | 0.00 | 0.00 | 0.00 | 57 | 1003.2 |
| 20260505070013 | 58 | 195 | 3.0 | 8.0 | 0.00 | 0.00 | 0.00 | 56 | 1003.0 |
| 20260505064543 | 58 | 162 | 3.0 | 8.0 | 0.00 | 0.00 | 0.00 | 56 | 1003.2 |
| 20260505063040 | 58 | 171 | 5.0 | 8.0 | 0.00 | 0.00 | 0.00 | 56 | 1003.3 |
| 20260505061524 | 58 | 204 | 3.0 | 9.0 | 0.00 | 0.00 | 0.00 | 56 | 1003.3 |
| 20260505060008 | 58 | 188 | 5.0 | 10.0 | 0.00 | 0.00 | 0.00 | 56 | 1003.3 |
| 20260505054506 | 58 | 173 | 4.0 | 6.0 | 0.00 | 0.00 | 0.00 | 56 | 1003.3 |
| 20260505053005 | 58 | 176 | 4.0 | 8.0 | 0.00 | 0.00 | 0.00 | 56 | 1003.4 |
| 20260505051506 | 59 | 170 | 5.0 | 9.0 | 0.00 | 0.00 | 0.00 | 55 | 1003.4 |
| 20260505041601 | 59 | 154 | 4.0 | 9.0 | 0.00 | 0.00 | 0.00 | 53 | 1003.4 |
| 20260505040101 | 59 | 192 | 3.0 | 7.0 | 0.00 | 0.00 | 0.00 | 52 | 1003.4 |
| 20260505034600 | 59 | 178 | 3.0 | 8.0 | 0.00 | 0.00 | 0.00 | 52 | 1003.3 |
| 20260505033056 | 59 | 196 | 4.0 | 9.0 | 0.00 | 0.00 | 0.00 | 51 | 1003.2 |
| 20260505031609 | 58 | 163 | 4.0 | 7.0 | 0.00 | 0.00 | 0.00 | 53 | 1003.3 |
| 20260505030054 | 58 | 163 | 4.0 | 7.0 | 0.00 | 0.00 | 0.00 | 54 | 1003.5 |
| 20260505024559 | 57 | 171 | 2.0 | 7.0 | 0.00 | 0.00 | 0.00 | 55 | 1003.5 |
| 20260505023102 | 57 | 144 | 2.0 | 5.0 | 0.00 | 0.00 | 0.00 | 54 | 1003.6 |
| 20260505021547 | 58 | 138 | 1.0 | 3.0 | 0.00 | 0.00 | 0.00 | 53 | 1003.7 |
| 20260505020044 | 58 | 150 | 1.0 | 3.0 | 0.00 | 0.00 | 0.00 | 52 | 1003.6 |
| 20260505014544 | 59 | 150 | 0.0 | 3.0 | 0.00 | 0.00 | 0.00 | 51 | 1003.8 |
| 20260505013040 | 59 | 144 | 1.0 | 3.0 | 0.00 | 0.00 | 0.00 | 50 | 1003.7 |
| 20260505011540 | 59 | 144 | 1.0 | 5.0 | 0.00 | 0.00 | 0.00 | 50 | 1003.6 |
| 20260505010038 | 59 | 157 | 1.0 | 3.0 | 0.00 | 0.00 | 0.00 | 49 | 1003.5 |
| 20260505004546 | 59 | 142 | 1.0 | 3.0 | 0.00 | 0.00 | 0.00 | 49 | 1003.3 |
| 20260505003032 | 61 | 156 | 0.0 | 1.0 | 0.00 | 0.00 | 0.00 | 48 | 1003.3 |
| 20260505001531 | 63 | 156 | 0.0 | 0.0 | 0.00 | 0.00 | 0.00 | 44 | 1002.9 |
| 20260505000047 | 64 | 183 | 1.0 | 5.0 | 0.00 | 0.00 | 0.00 | 41 | 1002.9 |
| 20260504234531 | 65 | 173 | 2.0 | 8.0 | 0.00 | 0.00 | 0.00 | 39 | 1002.8 |
| 20260504233028 | 66 | 208 | 2.0 | 9.0 | 0.00 | 0.00 | 0.00 | 39 | 1002.7 |
| 20260504231530 | 67 | 179 | 5.0 | 14.0 | 0.00 | 0.00 | 0.00 | 37 | 1002.6 |
| 20260504230027 | 68 | 194 | 6.0 | 15.0 | 0.00 | 0.00 | 0.00 | 36 | 1002.6 |
| 20260504224525 | 68 | 220 | 8.0 | 14.0 | 0.00 | 0.00 | 0.00 | 35 | 1002.5 |
| 20260504223023 | 68 | 211 | 7.0 | 18.0 | 0.00 | 0.00 | 0.00 | 36 | 1002.7 |
| 20260504221521 | 69 | 200 | 5.0 | 15.0 | 0.00 | 0.00 | 0.00 | 35 | 1002.7 |
| 20260504220021 | 69 | 187 | 8.0 | 15.0 | 0.00 | 0.00 | 0.00 | 35 | 1002.7 |
| 20260504214521 | 68 | 216 | 6.0 | 14.0 | 0.00 | 0.00 | 0.00 | 35 | 1002.7 |
| 20260504213050 | 68 | 225 | 7.0 | 17.0 | 0.00 | 0.00 | 0.00 | 36 | 1002.7 |
| 20260504211549 | 68 | 170 | 6.0 | 18.0 | 0.00 | 0.00 | 0.00 | 34 | 1002.8 |
| 20260504210050 | 69 | 159 | 6.0 | 15.0 | 0.00 | 0.00 | 0.00 | 36 | 1002.9 |
| 20260504204544 | 68 | 220 | 6.0 | 14.0 | 0.00 | 0.00 | 0.00 | 36 | 1003.1 |
| 20260504203047 | 69 | 210 | 10.0 | 17.0 | 0.00 | 0.00 | 0.00 | 35 | 1003.4 |
| 20260504201543 | 68 | 191 | 7.0 | 16.0 | 0.00 | 0.00 | 0.00 | 37 | 1003.3 |
| 20260504200038 | 69 | 222 | 7.0 | 16.0 | 0.00 | 0.00 | 0.00 | 36 | 1003.6 |
| 20260504194539 | 68 | 196 | 6.0 | 18.0 | 0.00 | 0.00 | 0.00 | 36 | 1003.7 |
| 20260504193035 | 68 | 183 | 8.0 | 17.0 | 0.00 | 0.00 | 0.00 | 37 | 1003.8 |
| 20260504191536 | 68 | 167 | 5.0 | 15.0 | 0.00 | 0.00 | 0.00 | 38 | 1004.0 |
| 20260504190029 | 67 | 195 | 4.0 | 20.0 | 0.00 | 0.00 | 0.00 | 37 | 1004.0 |
| 20260504184526 | 67 | 223 | 5.0 | 16.0 | 0.00 | 0.00 | 0.00 | 38 | 1004.1 |
| 20260504183024 | 66 | 144 | 9.0 | 19.0 | 0.00 | 0.00 | 0.00 | 40 | 1004.2 |
| 20260504181527 | 65 | 183 | 8.0 | 22.0 | 0.00 | 0.00 | 0.00 | 41 | 1004.2 |
| 20260504180050 | 65 | 202 | 5.0 | 17.0 | 0.00 | 0.00 | 0.00 | 41 | 1004.2 |
| 20260504174549 | 64 | 193 | 8.0 | 20.0 | 0.00 | 0.00 | 0.00 | 43 | 1004.3 |